Location: Newark
(51.2625°N, 13.3939°E)
Time: 15:45:51
(UTC+00:00)

deb Explorer IX - Pass Details

Date: 23 November 2019
Orbit: 545 x 1105 km, 38.8° (Epoch: 08 December)

Event Time Altitude Azimuth Distance (km) Brightness Sun altitude
Rises 02:31:29 0° 259° (WSW) 3,611 - -37.5°
Reaches altitude 10° 02:35:06 10° 241° (WSW) 2,551 - -37.0°
Maximum altitude 02:38:56 18° 202° (SSW) 1,937 - -36.4°
Drops below altitude 10° 02:42:26 10° 161° (SSE) 2,289 - -35.9°
Exits shadow 02:44:03 - 149° (SSE) 2,687 ? -35.6°
Sets 02:45:27 0° 142° (SE) 3,100 ? -35.4°
